Snowfall_Accumulation
0.0 0.0 0.0 0.0 0.0 0.0 0.0 0.0 0.0 0.0 0.0 0.0 0.0 0.0 0.0 0.0 0.0 0.0 0.0 0.0 0.0 0.0 0.0 0.0 0.0 0.0 0.0 0.0 0.0 0.0 0.0 0.0 0.0 0.0 0.0 0.0 0.0 0.0 0.0 0.0 0.0 0.0 0.0 0.0 0.0 0.0 0.0 0.0 0.0
0.0 0.0 0.0 0.0 0.0 0.3 0.0 0.0 0.0 0.0 0.0 0.0 0.0 0.0 0.0 0.0 0.0 0.0 0.0 0.0 0.0 0.0 0.0 0.0 0.0 0.0 0.0 0.0 0.0 0.0 0.0 0.0 0.0 0.0 0.0 0.0 0.0 0.0 0.0 0.0 0.0 0.0 0.0 0.0 0.0 0.0 0.0 0.0 0.0
0.0 0.0 0.0 0.0 0.1 0.4 0.0 0.0 0.0 0.0 0.0 0.0 0.0 0.0 0.0 0.0 0.0 0.0 0.0 0.0 0.0 0.0 0.0 0.0 0.0 0.0 0.0 0.0 0.0 0.0 0.0 0.0 0.0 0.0 0.0 0.0 0.0 0.0 0.0 0.0 0.0 0.0 0.0 0.0 0.0 0.0 0.0 0.0 0.0
0.0 0.0 0.0 0.0 0.3 0.0 0.0 0.0 0.0 0.0 0.0 0.0 0.0 0.0 0.0 0.0 0.0 0.0 0.0 0.0 0.0 0.0 0.0 0.0 0.0 0.0 0.0 0.0 0.0 0.0 0.0 0.0 0.0 0.0 0.0 0.0 0.0 0.0 0.0 0.0 0.0 0.0 0.0 0.0 0.0 0.0 0.0 0.0 0.0
0.0 0.0 0.0 0.2 0.1 0.0 0.0 0.0 0.0 0.0 0.0 0.0 0.0 0.0 0.0 0.0 0.0 0.0 0.0 0.0 0.0 0.0 0.0 0.0 0.0 0.0 0.0 0.0 0.0 0.0 0.0 0.0 0.0 0.0 0.0 0.0 0.0 0.0 0.0 0.0 0.0 0.0 0.0 0.0 0.0 0.0 0.0 0.0 0.0
0.0 0.0 0.3 0.9 0.2 0.0 0.0 0.0 0.0 0.0 0.0 0.0 0.0 0.0 0.0 0.0 0.0 0.0 0.0 0.0 0.0 0.0 0.0 0.0 0.0 0.0 0.0 0.0 0.0 0.0 0.0 0.0 0.0 0.0 0.0 0.0 0.0 0.0 0.0 0.0 0.0 0.0 0.0 0.0 0.0 0.0 0.0 0.0 0.0
0.0 0.1 0.5 0.5 0.2 0.0 0.0 0.0 0.0 0.0 0.0 0.0 0.0 0.0 0.0 0.0 0.0 0.0 0.0 0.0 0.0 0.0 0.0 0.0 0.0 0.0 0.0 0.0 0.0 0.0 0.0 0.0 0.0 0.0 0.0 0.0 0.0 0.0 0.0 0.0 0.0 0.0 0.0 0.0 0.0 0.0 0.0 0.0 0.0
0.0 0.2 0.5 0.3 0.2 0.1 0.0 0.0 0.0 0.0 0.0 0.0 0.0 0.0 0.0 0.0 0.0 0.0 0.0 0.0 0.0 0.0 0.0 0.0 0.0 0.0 0.0 0.0 0.0 0.0 0.0 0.0 0.0 0.0 0.0 0.0 0.0 0.0 0.0 0.0 0.0 0.0 0.0 0.0 0.0 0.0 0.0 0.0 0.0
0.0 0.3 1.1 0.4 0.2 0.1 0.0 0.1 0.0 0.0 0.0 0.0 0.0 0.0 0.0 0.0 0.0 0.0 0.0 0.0 0.0 0.0 0.0 0.0 0.0 0.0 0.0 0.0 0.0 0.0 0.0 0.0 0.0 0.0 0.0 0.0 0.0 0.0 0.0 0.0 0.0 0.0 0.0 0.0 0.0 0.0 0.0 0.0 0.0
0.2 1.1 0.5 0.1 0.1 0.1 0.1 0.1 0.1 0.0 0.0 0.0 0.0 0.0 0.0 0.0 0.0 0.0 0.0 0.0 0.0 0.0 0.0 0.0 0.0 0.0 0.0 0.0 0.0 0.0 0.0 0.0 0.0 0.0 0.0 0.0 0.0 0.0 0.0 0.0 0.0 0.0 0.0 0.0 0.0 0.0 0.0 0.0 0.0
0.3 0.5 0.2 0.1 0.1 0.1 0.1 0.1 0.1 0.1 0.1 0.1 0.1 0.0 0.0 0.0 0.0 0.0 0.0 0.0 0.0 0.0 0.0 0.0 0.0 0.0 0.0 0.0 0.0 0.0 0.0 0.0 0.0 0.0 0.0 0.0 0.0 0.0 0.0 0.0 0.0 0.0 0.0 0.0 0.0 0.0 0.0 0.0 0.0
0.3 0.2 0.1 0.3 0.1 0.1 0.2 0.2 0.1 0.2 0.4 0.2 0.1 0.0 0.0 0.0 0.0 0.0 0.0 0.0 0.0 0.0 0.0 0.0 0.0 0.0 0.0 0.0 0.0 0.0 0.0 0.0 0.0 0.0 0.0 0.0 0.0 0.0 0.0 0.0 0.0 0.0 0.0 0.0 0.0 0.0 0.0 0.0 0.0
0.3 0.2 0.2 0.2 0.1 0.2 0.2 0.3 0.2 0.3 0.3 0.2 0.1 0.0 0.0 0.0 0.0 0.0 0.0 0.0 0.0 0.0 0.0 0.0 0.0 0.0 0.0 0.0 0.0 0.0 0.0 0.0 0.0 0.0 0.0 0.0 0.0 0.0 0.0 0.0 0.0 0.0 0.0 0.0 0.0 0.0 0.0 0.0 0.0
0.2 0.1 0.1 0.1 0.1 0.1 0.2 0.5 0.4 0.5 0.2 0.1 0.1 0.1 0.1 0.0 0.0 0.0 0.0 0.0 0.1 0.0 0.0 0.1 0.0 0.0 0.0 0.0 0.0 0.0 0.0 0.0 0.0 0.0 0.0 0.0 0.0 0.0 0.0 0.0 0.0 0.0 0.0 0.0 0.0 0.0 0.0 0.0 0.0
0.1 0.1 0.1 0.0 0.0 0.0 0.1 0.5 0.7 0.6 0.2 0.1 0.2 0.2 0.1 0.1 0.1 0.0 0.1 0.1 0.1 0.1 0.1 0.1 0.1 0.1 0.1 0.1 0.1 0.1 0.1 0.0 0.0 0.0 0.0 0.0 0.0 0.0 0.0 0.0 0.0 0.0 0.0 0.0 0.0 0.0 0.0 0.0 0.0
0.4 1.0 1.3 0.2 0.0 0.0 0.6 1.6 0.6 0.4 0.3 0.2 0.2 0.3 0.2 0.2 0.1 0.1 0.1 0.1 0.1 0.1 0.0 0.1 0.1 0.1 0.1 0.1 0.1 0.1 0.1 0.1 0.1 0.1 0.1 0.1 0.1 0.1 0.1 0.0 0.0 0.0 0.0 0.0 0.0 0.0 0.0 0.0 0.0
4.7 6.0 3.8 1.2 0.1 0.2 0.8 1.2 0.6 0.4 0.4 0.5 0.4 0.4 0.4 0.4 0.3 0.2 0.2 0.3 0.1 0.1 0.1 0.1 0.1 0.1 0.2 0.1 0.1 0.1 0.1 0.2 0.2 0.1 0.1 0.2 0.1 0.1 0.1 0.1 0.1 0.0 0.0 0.0 0.0 0.0 0.0 0.0 0.0
5.9 4.5 2.7 2.0 0.6 0.6 1.2 1.1 0.7 0.4 0.4 0.6 0.6 0.5 0.5 0.5 0.4 0.3 0.3 0.2 0.2 0.2 0.1 0.1 0.1 0.1 0.3 0.2 0.2 0.1 0.1 0.2 0.2 0.2 0.2 0.2 0.2 0.2 0.2 0.1 0.1 0.1 0.1 0.1 0.1 0.1 0.0 0.1 0.0
3.5 3.4 3.0 1.5 0.9 1.4 1.6 1.5 1.0 0.6 0.5 0.5 0.6 0.7 0.7 0.7 0.6 0.3 0.3 0.3 0.3 0.2 0.2 0.2 0.2 0.2 0.2 0.3 0.2 0.2 0.3 0.1 0.2 0.2 0.3 0.3 0.2 0.2 0.3 0.2 0.1 0.2 0.2 0.1 0.1 0.1 0.2 0.1 0.0
3.9 4.5 3.4 1.9 1.2 2.1 2.1 2.1 1.1 0.9 0.9 0.9 0.6 0.6 0.7 0.6 0.6 0.5 0.3 0.2 0.3 0.2 0.3 0.3 0.3 0.3 0.3 0.2 0.3 0.3 0.4 0.4 0.3 0.4 0.3 0.4 0.5 0.3 0.3 0.4 0.2 0.3 0.3 0.2 0.4 0.2 0.3 0.1 0.1
4.4 4.0 3.7 4.0 2.6 2.0 3.5 3.7 2.3 1.5 1.1 1.0 0.8 0.7 0.6 0.8 0.8 0.8 0.6 0.5 0.3 0.4 0.4 0.4 0.4 0.4 0.4 0.4 0.2 0.3 0.4 0.4 0.3 0.5 0.5 0.4 0.5 0.6 0.5 0.4 0.3 0.4 0.3 0.4 0.4 0.5 0.7 0.5 0.2
5.4 1.7 2.3 3.9 6.5 8.6 6.5 12.2 4.4 2.4 1.7 1.5 1.2 1.2 1.0 0.9 1.0 0.9 0.7 0.6 0.5 0.5 0.6 0.5 0.6 0.6 0.7 0.5 0.6 0.5 0.7 0.7 0.7 0.9 0.7 0.7 0.8 0.8 0.7 0.6 0.4 0.4 0.4 0.4 0.5 0.4 0.7 0.5 0.7
3.5 0.9 2.1 3.8 8.0 11.2 6.2 11.3 7.1 3.2 2.7 2.8 2.1 1.7 1.3 1.2 1.3 1.3 1.0 0.8 0.6 0.5 0.4 0.5 0.6 0.7 0.8 1.0 0.8 0.9 0.9 1.1 1.0 1.0 0.7 0.5 0.7 1.0 1.0 0.9 0.6 0.4 0.5 0.5 0.5 0.7 0.8 0.8 0.6
1.5 1.9 2.5 4.1 10.7 17.9 7.7 10.0 9.2 6.5 5.1 3.1 2.3 2.0 1.5 1.6 1.1 1.1 1.0 0.8 0.6 0.5 0.4 0.4 0.5 0.6 0.8 0.8 1.0 1.2 1.5 1.4 1.1 1.1 1.2 0.9 0.8 0.9 0.9 1.2 0.9 0.6 0.5 0.5 0.6 0.7 0.8 0.9 0.5
3.9 12.5 23.8 23.8 22.8 13.4 5.5 8.2 10.4 5.1 3.5 3.1 2.9 2.4 2.0 1.9 1.5 1.2 1.1 1.0 0.8 0.6 0.5 0.4 0.4 0.5 0.6 0.7 0.8 0.9 1.1 1.3 1.5 1.4 1.6 1.5 1.3 1.0 1.1 1.4 1.3 1.3 0.6 0.6 0.7 0.8 0.9 0.9 1.0
4.8 9.3 18.9 17.9 12.2 7.8 6.2 8.6 9.4 4.4 3.5 2.9 2.6 2.4 2.0 1.8 1.8 1.5 1.3 1.1 1.0 0.9 0.7 0.6 0.5 0.4 0.5 0.5 0.6 0.6 0.7 1.0 1.2 1.3 1.5 1.7 1.3 1.2 1.0 1.1 1.3 1.5 1.1 0.7 0.6 0.8 0.8 1.0 1.0
6.6 8.8 7.6 15.0 11.1 9.3 8.8 7.9 6.0 2.8 2.6 2.7 2.3 1.9 1.8 2.0 1.7 1.8 1.6 1.4 1.1 1.1 1.1 1.0 0.9 0.5 0.5 0.5 0.5 0.6 0.6 0.7 0.9 1.1 1.2 1.4 1.5 1.3 1.1 1.1 1.1 1.3 1.5 1.1 1.0 1.0 0.9 0.9 1.1
3.5 5.8 12.0 19.9 17.7 12.5 8.3 7.5 9.0 5.6 4.3 3.2 2.7 2.3 1.9 1.8 1.8 1.7 1.8 1.7 1.3 1.4 1.4 1.2 1.2 1.0 0.9 0.8 0.8 0.7 0.7 0.5 0.7 0.9 1.0 1.3 1.0 1.1 1.1 1.2 1.2 1.2 1.3 1.0 1.0 1.0 1.0 1.3 1.3
5.7 9.1 12.8 15.6 14.1 13.9 10.6 10.1 8.3 6.2 4.3 3.6 3.0 2.7 2.5 2.2 2.3 2.3 2.0 2.0 1.9 1.7 1.8 1.8 1.4 1.1 1.1 1.1 1.1 1.0 1.0 0.7 0.5 0.7 0.8 0.9 0.9 0.9 1.0 1.0 1.3 1.4 1.3 1.1 1.1 1.0 1.1 1.1 1.4
4.0 7.5 11.0 17.8 13.6 10.7 11.3 10.8 5.4 4.4 3.9 3.8 3.4 3.3 3.1 2.9 2.7 2.6 2.5 2.1 2.0 2.0 1.9 1.9 1.9 1.6 1.5 1.4 1.2 1.2 1.2 1.3 0.8 0.7 0.8 0.9 0.8 0.9 0.9 1.0 1.1 1.3 1.3 1.4 1.1 1.2 1.1 1.2 1.2